Year,Month,Day,Hour,Minute,Value (Times are PST for temperature in C)
2007,05,30,00,00,13.70
2007,05,30,00,01,13.70
2007,05,30,00,02,13.70
2007,05,30,00,03,13.60
2007,05,30,00,04,13.50
2007,05,30,00,05,13.50
2007,05,30,00,06,13.40
2007,05,30,00,07,13.30
2007,05,30,00,08,13.30
2007,05,30,00,09,13.30
2007,05,30,00,10,13.30
2007,05,30,00,11,13.30
2007,05,30,00,12,13.30
2007,05,30,00,13,13.30
2007,05,30,00,14,13.30
2007,05,30,00,15,13.30
2007,05,30,00,16,13.30
2007,05,30,00,17,13.40
2007,05,30,00,18,13.40
2007,05,30,00,19,13.40
2007,05,30,00,20,13.40
2007,05,30,00,21,13.40
2007,05,30,00,22,13.40
2007,05,30,00,23,13.30
2007,05,30,00,24,13.30
2007,05,30,00,25,13.30
2007,05,30,00,26,13.30
2007,05,30,00,27,13.30
2007,05,30,00,28,13.30
2007,05,30,00,29,13.30
2007,05,30,00,30,13.20
2007,05,30,00,31,13.20
2007,05,30,00,32,13.20
2007,05,30,00,33,13.20
2007,05,30,00,34,13.10
2007,05,30,00,35,13.10
2007,05,30,00,36,13.10
2007,05,30,00,37,13.00
2007,05,30,00,38,13.00
2007,05,30,00,39,13.00
2007,05,30,00,40,13.00
2007,05,30,00,41,13.00
2007,05,30,00,42,13.00
2007,05,30,00,43,13.00
2007,05,30,00,44,12.90
2007,05,30,00,45,12.90
2007,05,30,00,46,12.90
2007,05,30,00,47,12.90
2007,05,30,00,48,12.90
2007,05,30,00,49,12.90
2007,05,30,00,50,12.80
2007,05,30,00,51,12.80
2007,05,30,00,52,12.80
2007,05,30,00,53,12.70
2007,05,30,00,54,12.70
2007,05,30,00,55,12.70
2007,05,30,00,56,12.70
2007,05,30,00,57,12.70
2007,05,30,00,58,12.70
2007,05,30,00,59,12.70
2007,05,30,01,00,12.70
2007,05,30,01,01,12.70
2007,05,30,01,02,12.60
2007,05,30,01,03,12.60
2007,05,30,01,04,12.60
2007,05,30,01,05,12.60
2007,05,30,01,06,12.50
2007,05,30,01,07,12.50
2007,05,30,01,08,12.50
2007,05,30,01,09,12.40
2007,05,30,01,10,12.40
2007,05,30,01,11,12.40
2007,05,30,01,12,12.40
2007,05,30,01,13,12.30
2007,05,30,01,14,12.30
2007,05,30,01,15,12.30
2007,05,30,01,16,12.30
2007,05,30,01,17,12.20
2007,05,30,01,18,12.20
2007,05,30,01,19,12.20
2007,05,30,01,20,12.20
2007,05,30,01,21,12.20
2007,05,30,01,22,12.20
2007,05,30,01,23,12.20
2007,05,30,01,24,12.10
2007,05,30,01,25,12.10
2007,05,30,01,26,12.10
2007,05,30,01,27,12.10
2007,05,30,01,28,12.00
2007,05,30,01,29,12.00
2007,05,30,01,30,11.90
2007,05,30,01,31,11.90
2007,05,30,01,32,11.90
2007,05,30,01,33,11.90
2007,05,30,01,34,11.80
2007,05,30,01,35,11.80
2007,05,30,01,36,11.80
2007,05,30,01,37,11.80
2007,05,30,01,38,11.80
2007,05,30,01,39,11.80
2007,05,30,01,40,11.80
2007,05,30,01,41,11.80
2007,05,30,01,42,11.80
2007,05,30,01,43,11.80
2007,05,30,01,44,11.80
2007,05,30,01,45,11.70
2007,05,30,01,46,11.70
2007,05,30,01,47,11.70
2007,05,30,01,48,11.70
2007,05,30,01,49,11.70
2007,05,30,01,50,11.70
2007,05,30,01,51,11.70
2007,05,30,01,52,11.70
2007,05,30,01,53,11.70
2007,05,30,01,54,11.70
2007,05,30,01,55,11.60
2007,05,30,01,56,11.60
2007,05,30,01,57,11.60
2007,05,30,01,58,11.70
2007,05,30,01,59,11.70
2007,05,30,02,00,11.70
2007,05,30,02,01,11.70
2007,05,30,02,02,11.70
2007,05,30,02,03,11.70
2007,05,30,02,04,11.70
2007,05,30,02,05,11.70
2007,05,30,02,06,11.60
2007,05,30,02,07,11.60
2007,05,30,02,08,11.60
2007,05,30,02,09,11.60
2007,05,30,02,10,11.60
2007,05,30,02,11,11.70
2007,05,30,02,12,11.70
2007,05,30,02,13,11.70
2007,05,30,02,14,11.70
2007,05,30,02,15,11.70
2007,05,30,02,16,11.80
2007,05,30,02,17,11.80
2007,05,30,02,18,11.80
2007,05,30,02,19,11.80
2007,05,30,02,20,11.80
2007,05,30,02,21,11.80
2007,05,30,02,22,11.80
2007,05,30,02,23,11.80
2007,05,30,02,24,11.80
2007,05,30,02,25,11.70
2007,05,30,02,26,11.70
2007,05,30,02,27,11.70
2007,05,30,02,28,11.70
2007,05,30,02,29,11.60
2007,05,30,02,30,11.60
2007,05,30,02,31,11.60
2007,05,30,02,32,11.70
2007,05,30,02,33,11.70
2007,05,30,02,34,11.70
2007,05,30,02,35,11.70
2007,05,30,02,36,11.70
2007,05,30,02,37,11.70
2007,05,30,02,38,11.70
2007,05,30,02,39,11.70
2007,05,30,02,40,11.70
2007,05,30,02,41,11.70
2007,05,30,02,42,11.70
2007,05,30,02,43,11.70
2007,05,30,02,44,11.70
2007,05,30,02,45,11.70
2007,05,30,02,46,11.70
2007,05,30,02,47,11.60
2007,05,30,02,48,11.60
2007,05,30,02,49,11.60
2007,05,30,02,50,11.60
2007,05,30,02,51,11.60
2007,05,30,02,52,11.60
2007,05,30,02,53,11.60
2007,05,30,02,54,11.70
2007,05,30,02,55,11.70
2007,05,30,02,56,11.70
2007,05,30,02,57,11.70
2007,05,30,02,58,11.70
2007,05,30,02,59,11.70
2007,05,30,03,00,11.60
2007,05,30,03,01,11.60
2007,05,30,03,02,11.60
2007,05,30,03,03,11.60
2007,05,30,03,04,11.60
2007,05,30,03,05,11.60
2007,05,30,03,06,11.60
2007,05,30,03,07,11.50
2007,05,30,03,08,11.50
2007,05,30,03,09,11.50
2007,05,30,03,10,11.40
2007,05,30,03,11,11.40
2007,05,30,03,12,11.40
2007,05,30,03,13,11.40
2007,05,30,03,14,11.30
2007,05,30,03,15,11.30
2007,05,30,03,16,11.30
2007,05,30,03,17,11.30
2007,05,30,03,18,11.30
2007,05,30,03,19,11.20
2007,05,30,03,20,11.20
2007,05,30,03,21,11.20
2007,05,30,03,22,11.20
2007,05,30,03,23,11.20
2007,05,30,03,24,11.10
2007,05,30,03,25,11.10
2007,05,30,03,26,11.10
2007,05,30,03,27,11.10
2007,05,30,03,28,11.00
2007,05,30,03,29,11.00
2007,05,30,03,30,10.90
2007,05,30,03,31,10.90
2007,05,30,03,32,10.90
2007,05,30,03,33,10.90
2007,05,30,03,34,10.80
2007,05,30,03,35,10.80
2007,05,30,03,36,10.80
2007,05,30,03,37,10.80
2007,05,30,03,38,10.80
2007,05,30,03,39,10.80
2007,05,30,03,40,10.80
2007,05,30,03,41,10.80
2007,05,30,03,42,10.80
2007,05,30,03,43,10.80
2007,05,30,03,44,10.80
2007,05,30,03,45,10.80
2007,05,30,03,46,10.80
2007,05,30,03,47,10.80
2007,05,30,03,48,10.80
2007,05,30,03,49,10.80
2007,05,30,03,50,10.80
2007,05,30,03,51,10.80
2007,05,30,03,52,10.80
2007,05,30,03,53,10.80
2007,05,30,03,54,10.80
2007,05,30,03,55,10.70
2007,05,30,03,56,10.70
2007,05,30,03,57,10.70
2007,05,30,03,58,10.70
2007,05,30,03,59,10.70
2007,05,30,04,00,10.70
2007,05,30,04,01,10.70
2007,05,30,04,02,10.70
2007,05,30,04,03,10.70
2007,05,30,04,04,10.70
2007,05,30,04,05,10.70
2007,05,30,04,06,10.70
2007,05,30,04,07,10.70
2007,05,30,04,08,10.70
2007,05,30,04,09,10.70
2007,05,30,04,10,10.70
2007,05,30,04,11,10.60
2007,05,30,04,12,10.60
2007,05,30,04,13,10.60
2007,05,30,04,14,10.60
2007,05,30,04,15,10.60
2007,05,30,04,16,10.50
2007,05,30,04,17,10.50
2007,05,30,04,18,10.50
2007,05,30,04,19,10.50
2007,05,30,04,20,10.50
2007,05,30,04,21,10.50
2007,05,30,04,22,10.50
2007,05,30,04,23,10.50
2007,05,30,04,24,10.50
2007,05,30,04,25,10.40
2007,05,30,04,26,10.40
2007,05,30,04,27,10.40
2007,05,30,04,28,10.40
2007,05,30,04,29,10.40
2007,05,30,04,30,10.40
2007,05,30,04,31,10.40
2007,05,30,04,32,10.40
2007,05,30,04,33,10.40
2007,05,30,04,34,10.40
2007,05,30,04,35,10.40
2007,05,30,04,36,10.40
2007,05,30,04,37,10.40
2007,05,30,04,38,10.40
2007,05,30,04,39,10.40
2007,05,30,04,40,10.40
2007,05,30,04,41,10.40
2007,05,30,04,42,10.30
2007,05,30,04,43,10.30
2007,05,30,04,44,10.30
2007,05,30,04,45,10.30
2007,05,30,04,46,10.30
2007,05,30,04,47,10.30
2007,05,30,04,48,10.30
2007,05,30,04,49,10.30
2007,05,30,04,50,10.30
2007,05,30,04,51,10.30
2007,05,30,04,52,10.20
2007,05,30,04,53,10.20
2007,05,30,04,54,10.20
2007,05,30,04,55,10.20
2007,05,30,04,56,10.20
2007,05,30,04,57,10.20
2007,05,30,04,58,10.20
2007,05,30,04,59,10.20
2007,05,30,05,00,10.20
2007,05,30,05,01,10.20
2007,05,30,05,02,10.20
2007,05,30,05,03,10.20
2007,05,30,05,04,10.20
2007,05,30,05,05,10.10
2007,05,30,05,06,10.10
2007,05,30,05,07,10.10
2007,05,30,05,08,10.10
2007,05,30,05,09,10.10
2007,05,30,05,10,10.10
2007,05,30,05,11,10.10
2007,05,30,05,12,10.10
2007,05,30,05,13,10.10
2007,05,30,05,14,10.10
2007,05,30,05,15,10.10
2007,05,30,05,16,10.10
2007,05,30,05,17,10.20
2007,05,30,05,18,10.20
2007,05,30,05,19,10.10
2007,05,30,05,20,10.10
2007,05,30,05,21,10.10
2007,05,30,05,22,10.10
2007,05,30,05,23,10.10
2007,05,30,05,24,10.10
2007,05,30,05,25,10.10
2007,05,30,05,26,10.00
2007,05,30,05,27,10.00
2007,05,30,05,28,10.00
2007,05,30,05,29,10.00
2007,05,30,05,30,10.00
2007,05,30,05,31,10.00
2007,05,30,05,32,10.00
2007,05,30,05,33,10.00
2007,05,30,05,34,10.00
2007,05,30,05,35,10.00
2007,05,30,05,36,10.00
2007,05,30,05,37,9.90
2007,05,30,05,38,9.90
2007,05,30,05,39,9.90
2007,05,30,05,40,9.90
2007,05,30,05,41,9.90
2007,05,30,05,42,9.80
2007,05,30,05,43,9.80
2007,05,30,05,44,9.90
2007,05,30,05,45,9.90
2007,05,30,05,46,9.90
2007,05,30,05,47,10.00
2007,05,30,05,48,10.00
2007,05,30,05,49,10.00
2007,05,30,05,50,10.00
2007,05,30,05,51,9.90
2007,05,30,05,52,9.90
2007,05,30,05,53,9.90
2007,05,30,05,54,9.90
2007,05,30,05,55,9.80
2007,05,30,05,56,9.80
2007,05,30,05,57,9.80
2007,05,30,05,58,9.80
2007,05,30,05,59,9.80
2007,05,30,06,00,9.80
2007,05,30,06,01,9.80
2007,05,30,06,02,9.80
2007,05,30,06,03,9.90
2007,05,30,06,04,9.90
2007,05,30,06,05,9.90
2007,05,30,06,06,9.90
2007,05,30,06,07,9.90
2007,05,30,06,08,10.00
2007,05,30,06,09,10.00
2007,05,30,06,10,10.00
2007,05,30,06,11,10.00
2007,05,30,06,12,10.10
2007,05,30,06,13,10.10
2007,05,30,06,14,10.10
2007,05,30,06,15,10.10
2007,05,30,06,16,10.10
2007,05,30,06,17,10.10
2007,05,30,06,18,10.10
2007,05,30,06,19,10.10
2007,05,30,06,20,10.10
2007,05,30,06,21,10.10
2007,05,30,06,22,10.10
2007,05,30,06,23,10.10
2007,05,30,06,24,10.10
2007,05,30,06,25,10.20
2007,05,30,06,26,10.20
2007,05,30,06,27,10.20
2007,05,30,06,28,10.20
2007,05,30,06,29,10.20
2007,05,30,06,30,10.20
2007,05,30,06,31,10.20
2007,05,30,06,32,10.30
2007,05,30,06,33,10.30
2007,05,30,06,34,10.30
2007,05,30,06,35,10.30
2007,05,30,06,36,10.30
2007,05,30,06,37,10.30
2007,05,30,06,38,10.30
2007,05,30,06,39,10.30
2007,05,30,06,40,10.30
2007,05,30,06,41,10.30
2007,05,30,06,42,10.30
2007,05,30,06,43,10.40
2007,05,30,06,44,10.40
2007,05,30,06,45,10.40
2007,05,30,06,46,10.40
2007,05,30,06,47,10.50
2007,05,30,06,48,10.50
2007,05,30,06,49,10.50
2007,05,30,06,50,10.60
2007,05,30,06,51,10.60
2007,05,30,06,52,10.60
2007,05,30,06,53,10.70
2007,05,30,06,54,10.70
2007,05,30,06,55,10.70
2007,05,30,06,56,10.70
2007,05,30,06,57,10.70
2007,05,30,06,58,10.80
2007,05,30,06,59,10.80
2007,05,30,07,00,10.80
2007,05,30,07,01,10.80
2007,05,30,07,02,10.80
2007,05,30,07,03,10.90
2007,05,30,07,04,10.90
2007,05,30,07,05,10.90
2007,05,30,07,06,11.00
2007,05,30,07,07,11.00
2007,05,30,07,08,11.10
2007,05,30,07,09,11.10
2007,05,30,07,10,11.10
2007,05,30,07,11,11.20
2007,05,30,07,12,11.20
2007,05,30,07,13,11.20
2007,05,30,07,14,11.30
2007,05,30,07,15,11.30
2007,05,30,07,16,11.30
2007,05,30,07,17,11.30
2007,05,30,07,18,11.40
2007,05,30,07,19,11.40
2007,05,30,07,20,11.50
2007,05,30,07,21,11.50
2007,05,30,07,22,11.60
2007,05,30,07,23,11.60
2007,05,30,07,24,11.60
2007,05,30,07,25,11.70
2007,05,30,07,26,11.70
2007,05,30,07,27,11.80
2007,05,30,07,28,11.80
2007,05,30,07,29,11.90
2007,05,30,07,30,11.90
2007,05,30,07,31,12.00
2007,05,30,07,32,12.00
2007,05,30,07,33,12.10
2007,05,30,07,34,12.10
2007,05,30,07,35,12.20
2007,05,30,07,36,12.20
2007,05,30,07,37,12.20
2007,05,30,07,38,12.30
2007,05,30,07,39,12.30
2007,05,30,07,40,12.40
2007,05,30,07,41,12.40
2007,05,30,07,42,12.50
2007,05,30,07,43,12.50
2007,05,30,07,44,12.60
2007,05,30,07,45,12.60
2007,05,30,07,46,12.60
2007,05,30,07,47,12.70
2007,05,30,07,48,12.70
2007,05,30,07,49,12.70
2007,05,30,07,50,12.70
2007,05,30,07,51,12.80
2007,05,30,07,52,12.80
2007,05,30,07,53,12.80
2007,05,30,07,54,12.80
2007,05,30,07,55,12.90
2007,05,30,07,56,12.90
2007,05,30,07,57,13.00
2007,05,30,07,58,13.00
2007,05,30,07,59,13.10
2007,05,30,08,00,13.10
2007,05,30,08,01,13.20
2007,05,30,08,02,13.20
2007,05,30,08,03,13.30
2007,05,30,08,04,13.40
2007,05,30,08,05,13.50
2007,05,30,08,06,13.50
2007,05,30,08,07,13.60
2007,05,30,08,08,13.70
2007,05,30,08,09,13.80
2007,05,30,08,10,13.80
2007,05,30,08,11,13.90
2007,05,30,08,12,14.00
2007,05,30,08,13,14.10
2007,05,30,08,14,14.20
2007,05,30,08,15,14.30
2007,05,30,08,16,14.40
2007,05,30,08,17,14.50
2007,05,30,08,18,14.60
2007,05,30,08,19,14.70
2007,05,30,08,20,14.80
2007,05,30,08,21,14.90
2007,05,30,08,22,15.00
2007,05,30,08,23,15.00
2007,05,30,08,24,15.10
2007,05,30,08,25,15.20
2007,05,30,08,26,15.30
2007,05,30,08,27,15.40
2007,05,30,08,28,15.50
2007,05,30,08,29,15.60
2007,05,30,08,30,15.70
2007,05,30,08,31,15.80
2007,05,30,08,32,15.80
2007,05,30,08,33,15.90
2007,05,30,08,34,16.00
2007,05,30,08,35,16.10
2007,05,30,08,36,16.10
2007,05,30,08,37,16.20
2007,05,30,08,38,16.30
2007,05,30,08,39,16.40
2007,05,30,08,40,16.50
2007,05,30,08,41,16.60
2007,05,30,08,42,16.70
2007,05,30,08,43,16.80
2007,05,30,08,44,16.90
2007,05,30,08,45,16.90
2007,05,30,08,46,17.00
2007,05,30,08,47,17.10
2007,05,30,08,48,17.10
2007,05,30,08,49,17.20
2007,05,30,08,50,17.30
2007,05,30,08,51,17.40
2007,05,30,08,52,17.50
2007,05,30,08,53,17.50
2007,05,30,08,54,17.60
2007,05,30,08,55,17.70
2007,05,30,08,56,17.80
2007,05,30,08,57,17.90
2007,05,30,08,58,18.00
2007,05,30,08,59,18.10
2007,05,30,09,00,18.10
2007,05,30,09,01,18.20
2007,05,30,09,02,18.20
2007,05,30,09,03,18.20
2007,05,30,09,04,18.20
2007,05,30,09,05,18.30
2007,05,30,09,06,18.30
2007,05,30,09,07,18.30
2007,05,30,09,08,18.30
2007,05,30,09,09,18.30
2007,05,30,09,10,18.30
2007,05,30,09,11,18.30
2007,05,30,09,12,18.40
2007,05,30,09,13,18.40
2007,05,30,09,14,18.40
2007,05,30,09,15,18.50
2007,05,30,09,16,18.60
2007,05,30,09,17,18.60
2007,05,30,09,18,18.70
2007,05,30,09,19,18.80
2007,05,30,09,20,18.80
2007,05,30,09,21,18.90
2007,05,30,09,22,18.90
2007,05,30,09,23,19.00
2007,05,30,09,24,19.00
2007,05,30,09,25,19.10
2007,05,30,09,26,19.10
2007,05,30,09,27,19.20
2007,05,30,09,28,19.30
2007,05,30,09,29,19.40
2007,05,30,09,30,19.40
2007,05,30,09,31,19.50
2007,05,30,09,32,19.50
2007,05,30,09,33,19.60
2007,05,30,09,34,19.60
2007,05,30,09,35,19.70
2007,05,30,09,36,19.70
2007,05,30,09,37,19.70
2007,05,30,09,38,19.70
2007,05,30,09,39,19.80
2007,05,30,09,40,19.80
2007,05,30,09,41,19.80
2007,05,30,09,42,19.80
2007,05,30,09,43,19.70
2007,05,30,09,44,19.70
2007,05,30,09,45,19.70
2007,05,30,09,46,19.80
2007,05,30,09,47,19.80
2007,05,30,09,48,19.80
2007,05,30,09,49,19.80
2007,05,30,09,50,19.80
2007,05,30,09,51,19.90
2007,05,30,09,52,20.00
2007,05,30,09,53,20.10
2007,05,30,09,54,20.20
2007,05,30,09,55,20.30
2007,05,30,09,56,20.40
2007,05,30,09,57,20.50
2007,05,30,09,58,20.50
2007,05,30,09,59,20.50
2007,05,30,10,00,20.50
2007,05,30,10,01,20.50
2007,05,30,10,02,20.50
2007,05,30,10,03,20.40
2007,05,30,10,04,20.40
2007,05,30,10,05,20.40
2007,05,30,10,06,20.40
2007,05,30,10,07,20.40
2007,05,30,10,08,20.50
2007,05,30,10,09,20.50
2007,05,30,10,10,20.60
2007,05,30,10,11,20.70
2007,05,30,10,12,20.70
2007,05,30,10,13,20.80
2007,05,30,10,14,20.80
2007,05,30,10,15,20.80
2007,05,30,10,16,20.80
2007,05,30,10,17,20.80
2007,05,30,10,18,20.90
2007,05,30,10,19,20.90
2007,05,30,10,20,20.90
2007,05,30,10,21,20.90
2007,05,30,10,22,20.90
2007,05,30,10,23,21.00
2007,05,30,10,24,21.00
2007,05,30,10,25,21.10
2007,05,30,10,26,21.10
2007,05,30,10,27,21.10
2007,05,30,10,28,21.20
2007,05,30,10,29,21.30
2007,05,30,10,30,21.40
2007,05,30,10,31,21.50
2007,05,30,10,32,21.50
2007,05,30,10,33,21.60
2007,05,30,10,34,21.60
2007,05,30,10,35,21.60
2007,05,30,10,36,21.70
2007,05,30,10,37,21.80
2007,05,30,10,38,21.90
2007,05,30,10,39,22.00
2007,05,30,10,40,22.10
2007,05,30,10,41,22.20
2007,05,30,10,42,22.40
2007,05,30,10,43,22.50
2007,05,30,10,44,22.60
2007,05,30,10,45,22.70
2007,05,30,10,46,22.80
2007,05,30,10,47,22.90
2007,05,30,10,48,23.00
2007,05,30,10,49,23.00
2007,05,30,10,50,23.10
2007,05,30,10,51,23.20
2007,05,30,10,52,23.30
2007,05,30,10,53,23.30
2007,05,30,10,54,23.40
2007,05,30,10,55,23.40
2007,05,30,10,56,23.50
2007,05,30,10,57,23.60
2007,05,30,10,58,23.60
2007,05,30,10,59,23.60
2007,05,30,11,00,23.60
2007,05,30,11,01,23.60
2007,05,30,11,02,23.60
2007,05,30,11,03,23.60
2007,05,30,11,04,23.60
2007,05,30,11,05,23.70
2007,05,30,11,06,23.70
2007,05,30,11,07,23.70
2007,05,30,11,08,23.80
2007,05,30,11,09,23.80
2007,05,30,11,10,23.80
2007,05,30,11,11,23.80
2007,05,30,11,12,23.90
2007,05,30,11,13,23.90
2007,05,30,11,14,23.90
2007,05,30,11,15,23.90
2007,05,30,11,16,23.90
2007,05,30,11,17,23.90
2007,05,30,11,18,23.90
2007,05,30,11,19,23.90
2007,05,30,11,20,23.80
2007,05,30,11,21,23.80
2007,05,30,11,22,23.70
2007,05,30,11,23,23.70
2007,05,30,11,24,23.70
2007,05,30,11,25,23.70
2007,05,30,11,26,23.60
2007,05,30,11,27,23.60
2007,05,30,11,28,23.60
2007,05,30,11,29,23.60
2007,05,30,11,30,23.60
2007,05,30,11,31,23.60
2007,05,30,11,32,23.60
2007,05,30,11,33,23.60
2007,05,30,11,34,23.60
2007,05,30,11,35,23.70
2007,05,30,11,36,23.60
2007,05,30,11,37,23.60
2007,05,30,11,38,23.60
2007,05,30,11,39,23.60
2007,05,30,11,40,23.60
2007,05,30,11,41,23.50
2007,05,30,11,42,23.50
2007,05,30,11,43,23.50
2007,05,30,11,44,23.40
2007,05,30,11,45,23.50
2007,05,30,11,46,23.50
2007,05,30,11,47,23.60
2007,05,30,11,48,23.60
2007,05,30,11,49,23.60
2007,05,30,11,50,23.60
2007,05,30,11,51,23.70
2007,05,30,11,52,23.80
2007,05,30,11,53,23.80
2007,05,30,11,54,23.80
2007,05,30,11,55,23.90
2007,05,30,11,56,23.90
2007,05,30,11,57,23.80
2007,05,30,11,58,23.80
2007,05,30,11,59,23.80
2007,05,30,12,00,23.80
2007,05,30,12,01,23.80
2007,05,30,12,02,23.80
2007,05,30,12,03,23.80
2007,05,30,12,04,23.80
2007,05,30,12,05,23.90
2007,05,30,12,06,24.00
2007,05,30,12,07,24.00
2007,05,30,12,08,24.10
2007,05,30,12,09,24.20
2007,05,30,12,10,24.20
2007,05,30,12,11,24.30
2007,05,30,12,12,24.30
2007,05,30,12,13,24.30
2007,05,30,12,14,24.40
2007,05,30,12,15,24.50
2007,05,30,12,16,24.60
2007,05,30,12,17,24.70
2007,05,30,12,18,24.70
2007,05,30,12,19,24.80
2007,05,30,12,20,24.80
2007,05,30,12,21,24.90
2007,05,30,12,22,25.00
2007,05,30,12,23,25.00
2007,05,30,12,24,25.00
2007,05,30,12,25,25.00
2007,05,30,12,26,25.00
2007,05,30,12,27,24.90
2007,05,30,12,28,24.80
2007,05,30,12,29,24.70
2007,05,30,12,30,24.70
2007,05,30,12,31,24.70
2007,05,30,12,32,24.60
2007,05,30,12,33,24.50
2007,05,30,12,34,24.40
2007,05,30,12,35,24.40
2007,05,30,12,36,24.40
2007,05,30,12,37,24.40
2007,05,30,12,38,24.50
2007,05,30,12,39,24.50
2007,05,30,12,40,24.50
2007,05,30,12,41,24.50
2007,05,30,12,42,24.50
2007,05,30,12,43,24.50
2007,05,30,12,44,24.60
2007,05,30,12,45,24.60
2007,05,30,12,46,24.50
2007,05,30,12,47,24.50
2007,05,30,12,48,24.60
2007,05,30,12,49,24.60
2007,05,30,12,50,24.60
2007,05,30,12,51,24.70
2007,05,30,12,52,24.70
2007,05,30,12,53,24.80
2007,05,30,12,54,24.90
2007,05,30,12,55,25.00
2007,05,30,12,56,25.00
2007,05,30,12,57,25.10
2007,05,30,12,58,25.20
2007,05,30,12,59,25.20
2007,05,30,13,00,25.30
2007,05,30,13,01,25.30
2007,05,30,13,02,25.40
2007,05,30,13,03,25.50
2007,05,30,13,04,25.50
2007,05,30,13,05,25.50
2007,05,30,13,06,25.50
2007,05,30,13,07,25.50
2007,05,30,13,08,25.50
2007,05,30,13,09,25.40
2007,05,30,13,10,25.40
2007,05,30,13,11,25.30
2007,05,30,13,12,25.30
2007,05,30,13,13,25.30
2007,05,30,13,14,25.40
2007,05,30,13,15,25.40
2007,05,30,13,16,25.40
2007,05,30,13,17,25.40
2007,05,30,13,18,25.40
2007,05,30,13,19,25.40
2007,05,30,13,20,25.40
2007,05,30,13,21,25.40
2007,05,30,13,22,25.30
2007,05,30,13,23,25.30
2007,05,30,13,24,25.30
2007,05,30,13,25,25.30
2007,05,30,13,26,25.30
2007,05,30,13,27,25.30
2007,05,30,13,28,25.30
2007,05,30,13,29,25.30
2007,05,30,13,30,25.30
2007,05,30,13,31,25.30
2007,05,30,13,32,25.40
2007,05,30,13,33,25.30
2007,05,30,13,34,25.30
2007,05,30,13,35,25.30
2007,05,30,13,36,25.40
2007,05,30,13,37,25.40
2007,05,30,13,38,25.40
2007,05,30,13,39,25.50
2007,05,30,13,40,25.50
2007,05,30,13,41,25.60
2007,05,30,13,42,25.70
2007,05,30,13,43,25.80
2007,05,30,13,44,25.90
2007,05,30,13,45,25.90
2007,05,30,13,46,25.90
2007,05,30,13,47,25.90
2007,05,30,13,48,25.90
2007,05,30,13,49,25.90
2007,05,30,13,50,25.90
2007,05,30,13,51,25.90
2007,05,30,13,52,25.90
2007,05,30,13,53,25.90
2007,05,30,13,54,26.00
2007,05,30,13,55,26.10
2007,05,30,13,56,26.20
2007,05,30,13,57,26.20
2007,05,30,13,58,26.30
2007,05,30,13,59,26.30
2007,05,30,14,00,26.40
2007,05,30,14,01,26.50
2007,05,30,14,02,26.50
2007,05,30,14,03,26.60
2007,05,30,14,04,26.60
2007,05,30,14,05,26.60
2007,05,30,14,06,26.60
2007,05,30,14,07,26.60
2007,05,30,14,08,26.70
2007,05,30,14,09,26.70
2007,05,30,14,10,26.60
2007,05,30,14,11,26.70
2007,05,30,14,12,26.70
2007,05,30,14,13,26.70
2007,05,30,14,14,26.70
2007,05,30,14,15,26.80
2007,05,30,14,16,26.80
2007,05,30,14,17,26.80
2007,05,30,14,18,26.80
2007,05,30,14,19,26.80
2007,05,30,14,20,26.80
2007,05,30,14,21,26.80
2007,05,30,14,22,26.80
2007,05,30,14,23,26.90
2007,05,30,14,24,26.90
2007,05,30,14,25,26.90
2007,05,30,14,26,27.00
2007,05,30,14,27,27.00
2007,05,30,14,28,27.10
2007,05,30,14,29,27.20
2007,05,30,14,30,27.20
2007,05,30,14,31,27.10
2007,05,30,14,32,27.10
2007,05,30,14,33,27.10
2007,05,30,14,34,27.10
2007,05,30,14,35,27.10
2007,05,30,14,36,27.10
2007,05,30,14,37,27.20
2007,05,30,14,38,27.20
2007,05,30,14,39,27.10
2007,05,30,14,40,27.20
2007,05,30,14,41,27.20
2007,05,30,14,42,27.20
2007,05,30,14,43,27.30
2007,05,30,14,44,27.40
2007,05,30,14,45,27.40
2007,05,30,14,46,27.50
2007,05,30,14,47,27.60
2007,05,30,14,48,27.60
2007,05,30,14,49,27.70
2007,05,30,14,50,27.70
2007,05,30,14,51,27.70
2007,05,30,14,52,27.80
2007,05,30,14,53,27.80
2007,05,30,14,54,27.80
2007,05,30,14,55,27.80
2007,05,30,14,56,27.70
2007,05,30,14,57,27.70
2007,05,30,14,58,27.70
2007,05,30,14,59,27.70
2007,05,30,15,00,27.70
2007,05,30,15,01,27.70
2007,05,30,15,02,27.70
2007,05,30,15,03,27.70
2007,05,30,15,04,27.80
2007,05,30,15,05,27.70
2007,05,30,15,06,27.60
2007,05,30,15,07,27.50
2007,05,30,15,08,27.40
2007,05,30,15,09,27.30
2007,05,30,15,10,27.20
2007,05,30,15,11,27.10
2007,05,30,15,12,27.10
2007,05,30,15,13,27.10
2007,05,30,15,14,27.10
2007,05,30,15,15,27.10
2007,05,30,15,16,27.20
2007,05,30,15,17,27.20
2007,05,30,15,18,27.20
2007,05,30,15,19,27.30
2007,05,30,15,20,27.30
2007,05,30,15,21,27.30
2007,05,30,15,22,27.30
2007,05,30,15,23,27.30
2007,05,30,15,24,27.30
2007,05,30,15,25,27.30
2007,05,30,15,26,27.30
2007,05,30,15,27,27.40
2007,05,30,15,28,27.40
2007,05,30,15,29,27.50
2007,05,30,15,30,27.60
2007,05,30,15,31,27.70
2007,05,30,15,32,27.70
2007,05,30,15,33,27.70
2007,05,30,15,34,27.80
2007,05,30,15,35,27.80
2007,05,30,15,36,27.80
2007,05,30,15,37,27.90
2007,05,30,15,38,27.90
2007,05,30,15,39,28.00
2007,05,30,15,40,28.10
2007,05,30,15,41,28.10
2007,05,30,15,42,28.20
2007,05,30,15,43,28.30
2007,05,30,15,44,28.30
2007,05,30,15,45,28.40
2007,05,30,15,46,28.40
2007,05,30,15,47,28.30
2007,05,30,15,48,28.30
2007,05,30,15,49,28.30
2007,05,30,15,50,28.20
2007,05,30,15,51,28.20
2007,05,30,15,52,28.20
2007,05,30,15,53,28.20
2007,05,30,15,54,28.20
2007,05,30,15,55,28.10
2007,05,30,15,56,28.10
2007,05,30,15,57,28.10
2007,05,30,15,58,28.10
2007,05,30,15,59,28.10
2007,05,30,16,00,28.10
2007,05,30,16,01,28.10
2007,05,30,16,02,28.20
2007,05,30,16,03,28.10
2007,05,30,16,04,28.10
2007,05,30,16,05,28.10
2007,05,30,16,06,28.20
2007,05,30,16,07,28.20
2007,05,30,16,08,28.20
2007,05,30,16,09,28.30
2007,05,30,16,10,28.30
2007,05,30,16,11,28.20
2007,05,30,16,12,28.20
2007,05,30,16,13,28.10
2007,05,30,16,14,28.10
2007,05,30,16,15,28.00
2007,05,30,16,16,28.00
2007,05,30,16,17,28.00
2007,05,30,16,18,27.90
2007,05,30,16,19,27.90
2007,05,30,16,20,27.90
2007,05,30,16,21,27.80
2007,05,30,16,22,27.80
2007,05,30,16,23,27.70
2007,05,30,16,24,27.70
2007,05,30,16,25,27.60
2007,05,30,16,26,27.50
2007,05,30,16,27,27.40
2007,05,30,16,28,27.30
2007,05,30,16,29,27.20
2007,05,30,16,30,27.00
2007,05,30,16,31,26.90
2007,05,30,16,32,26.80
2007,05,30,16,33,26.80
2007,05,30,16,34,26.80
2007,05,30,16,35,26.80
2007,05,30,16,36,26.80
2007,05,30,16,37,26.70
2007,05,30,16,38,26.70
2007,05,30,16,39,26.60
2007,05,30,16,40,26.60
2007,05,30,16,41,26.60
2007,05,30,16,42,26.50
2007,05,30,16,43,26.50
2007,05,30,16,44,26.50
2007,05,30,16,45,26.50
2007,05,30,16,46,26.40
2007,05,30,16,47,26.40
2007,05,30,16,48,26.40
2007,05,30,16,49,26.40
2007,05,30,16,50,26.30
2007,05,30,16,51,26.30
2007,05,30,16,52,26.30
2007,05,30,16,53,26.20
2007,05,30,16,54,26.20
2007,05,30,16,55,26.20
2007,05,30,16,56,26.20
2007,05,30,16,57,26.00
2007,05,30,16,58,25.90
2007,05,30,16,59,25.90
2007,05,30,17,00,25.90
2007,05,30,17,01,25.80
2007,05,30,17,02,25.80
2007,05,30,17,03,25.90
2007,05,30,17,04,25.90
2007,05,30,17,05,25.90
2007,05,30,17,06,26.00
2007,05,30,17,07,26.00
2007,05,30,17,08,26.10
2007,05,30,17,09,26.20
2007,05,30,17,10,26.30
2007,05,30,17,11,26.40
2007,05,30,17,12,26.40
2007,05,30,17,13,26.50
2007,05,30,17,14,26.60
2007,05,30,17,15,26.70
2007,05,30,17,16,26.70
2007,05,30,17,17,26.80
2007,05,30,17,18,26.90
2007,05,30,17,19,27.00
2007,05,30,17,20,27.20